• In India
  • List of Countries
  • For 7 days
  • Water Temperature
  • Satellite Maps
  • Weather Map
  • Weather Widgets
  • user-avatar
    Login

    Hourly Weather Zaliznychne

    Today, 20 September, Thursday

    Time Temperature Precipitation Wind Pressure Humidity
    00:00 +20°C° 0 mm 1 mps 751 mmHg 55%
    01:00 +19°C° 0 mm 1 mps 751 mmHg 56%
    02:00 +19°C° 0 mm 1 mps 751 mmHg 57%
    03:00 +18°C° 0 mm 1 mps 751 mmHg 58%
    04:00 +18°C° 0 mm 1 mps 751 mmHg 59%
    05:00 +18°C° 0 mm 1 mps 751 mmHg 60%
    06:00 +19°C° 0 mm 1 mps 751 mmHg 57%
    07:00 +20°C° 0 mm 1 mps 751 mmHg 53%
    08:00 +22°C° 0 mm 1 mps 751 mmHg 50%
    09:00 +24°C° 0 mm 1 mps 751 mmHg 45%
    10:00 +25°C° 0 mm 1 mps 751 mmHg 40%
    11:00 +27°C° 0 mm 2 mps 751 mmHg 36%
    12:00 +28°C° 0 mm 2 mps 751 mmHg 34%
    13:00 +28°C° 0 mm 2 mps 750 mmHg 32%
    14:00 +29°C° 0 mm 2 mps 750 mmHg 30%
    15:00 +28°C° 0 mm 2 mps 750 mmHg 33%
    16:00 +28°C° 0 mm 2 mps 750 mmHg 35%
    17:00 +27°C° 0 mm 1 mps 749 mmHg 37%
    18:00 +26°C° 0 mm 1 mps 749 mmHg 40%
    19:00 +24°C° 0 mm 1 mps 749 mmHg 43%
    20:00 +22°C° 0 mm 1 mps 749 mmHg 46%
    21:00 +22°C° 0 mm 1 mps 749 mmHg 48%
    22:00 +21°C° 0 mm 1 mps 749 mmHg 50%
    23:00 +21°C° 0 mm 1 mps 749 mmHg 51%

    Tomorrow, 21 September, Friday

    Time Temperature Precipitation Wind Pressure Humidity
    00:00 +20°C° 0 mm 1 mps 749 mmHg 54%
    01:00 +20°C° 0 mm 1 mps 749 mmHg 56%
    02:00 +19°C° 0 mm 1 mps 749 mmHg 58%
    03:00 +19°C° 0 mm 1 mps 749 mmHg 61%
    04:00 +19°C° 0 mm 1 mps 749 mmHg 63%
    05:00 +18°C° 0 mm 1 mps 749 mmHg 65%
    06:00 +20°C° 0 mm 1 mps 750 mmHg 62%
    07:00 +21°C° 0 mm 1 mps 750 mmHg 59%
    08:00 +22°C° 0 mm 1 mps 750 mmHg 55%
    09:00 +24°C° 0 mm 1 mps 750 mmHg 50%
    10:00 +26°C° 0 mm 1 mps 750 mmHg 45%
    11:00 +28°C° 0 mm 1 mps 750 mmHg 40%
    12:00 +28°C° 0 mm 1 mps 750 mmHg 38%
    13:00 +29°C° 0 mm 1 mps 749 mmHg 35%
    14:00 +27°C° 0 mm 0 mps 749 mmHg 33%
    15:00 +27°C° 0 mm 0 mps 749 mmHg 34%
    16:00 +26°C° 0 mm 0 mps 749 mmHg 36%
    17:00 +26°C° 0 mm 0 mps 748 mmHg 38%
    18:00 +24°C° 0 mm 0 mps 748 mmHg 40%
    19:00 +25°C° 0 mm 1 mps 748 mmHg 42%
    20:00 +23°C° 0 mm 1 mps 749 mmHg 44%
    21:00 +23°C° 0 mm 1 mps 749 mmHg 45%
    22:00 +22°C° 0 mm 1 mps 748 mmHg 47%
    23:00 +21°C° 0 mm 2 mps 748 mmHg 48%

    Day after tomorrow, 22 September, Saturday

    Time Temperature Precipitation Wind Pressure Humidity
    00:00 +21°C° 0 mm 1 mps 748 mmHg 50%
    01:00 +21°C° 0 mm 1 mps 748 mmHg 51%
    02:00 +20°C° 0 mm 1 mps 748 mmHg 52%
    03:00 +20°C° 0 mm 1 mps 748 mmHg 53%
    04:00 +20°C° 0 mm 1 mps 748 mmHg 54%
    05:00 +19°C° 0 mm 1 mps 748 mmHg 54%
    06:00 +21°C° 0 mm 1 mps 748 mmHg 51%
    07:00 +22°C° 0 mm 1 mps 748 mmHg 48%
    08:00 +23°C° 0 mm 2 mps 748 mmHg 45%
    09:00 +25°C° 0 mm 2 mps 748 mmHg 41%
    10:00 +27°C° 0 mm 3 mps 748 mmHg 36%
    11:00 +29°C° 0 mm 4 mps 748 mmHg 32%
    12:00 +29°C° 0 mm 4 mps 747 mmHg 30%
    13:00 +29°C° 0 mm 4 mps 747 mmHg 28%
    14:00 +30°C° 0 mm 4 mps 747 mmHg 27%
    15:00 +29°C° 0 mm 3 mps 746 mmHg 29%
    16:00 +28°C° 0 mm 3 mps 746 mmHg 31%
    17:00 +28°C° 0 mm 2 mps 746 mmHg 34%
    18:00 +26°C° 0 mm 2 mps 746 mmHg 36%
    19:00 +25°C° 0 mm 2 mps 746 mmHg 37%
    20:00 +23°C° 0 mm 2 mps 746 mmHg 39%
    21:00 +21°C° 0 mm 3 mps 746 mmHg 42%
    22:00 +21°C° 0 mm 3 mps 745 mmHg 45%
    23:00 +20°C° 0 mm 4 mps 745 mmHg 47%

    23 September, Sunday

    Time Temperature Precipitation Wind Pressure Humidity
    00:00 +19°C° 0 mm 3 mps 745 mmHg 52%
    01:00 +19°C° 0 mm 3 mps 745 mmHg 58%
    02:00 +18°C° 0 mm 3 mps 745 mmHg 63%
    03:00 +17°C° 0 mm 4 mps 745 mmHg 67%
    04:00 +15°C° 0 mm 6 mps 746 mmHg 70%
    05:00 +12°C° 0 mm 7 mps 746 mmHg 74%
    06:00 +13°C° 0.2 mm 6 mps 746 mmHg 74%
    07:00 +11°C° 0.2 mm 6 mps 747 mmHg 75%
    08:00 +11°C° 0.2 mm 6 mps 747 mmHg 75%
    09:00 +13°C° 0 mm 6 mps 748 mmHg 67%
    10:00 +14°C° 0 mm 6 mps 748 mmHg 60%
    11:00 +16°C° 0 mm 6 mps 748 mmHg 52%
    12:00 +17°C° 0 mm 6 mps 748 mmHg 47%
    13:00 +17°C° 0 mm 6 mps 748 mmHg 43%
    14:00 +19°C° 0 mm 6 mps 748 mmHg 38%
    15:00 +19°C° 0 mm 5 mps 748 mmHg 39%
    16:00 +18°C° 0 mm 4 mps 748 mmHg 40%
    17:00 +18°C° 0 mm 4 mps 748 mmHg 40%
    18:00 +17°C° 0 mm 3 mps 748 mmHg 43%
    19:00 +16°C° 0 mm 2 mps 749 mmHg 46%
    20:00 +14°C° 0 mm 1 mps 749 mmHg 49%
    21:00 +14°C° 0 mm 1 mps 749 mmHg 51%
    22:00 +13°C° 0 mm 1 mps 749 mmHg 52%
    23:00 +13°C° 0 mm 1 mps 749 mmHg 53%

    24 September, Monday

    Time Temperature Precipitation Wind Pressure Humidity
    00:00 +13°C° 0 mm 2 mps 748 mmHg 54%
    01:00 +13°C° 0 mm 2 mps 748 mmHg 54%
    02:00 +12°C° 0 mm 2 mps 747 mmHg 55%
    03:00 +11°C° 0 mm 3 mps 747 mmHg 55%
    04:00 +11°C° 0 mm 3 mps 746 mmHg 55%
    05:00 +11°C° 0 mm 4 mps 746 mmHg 55%
    06:00 +13°C° 0 mm 5 mps 745 mmHg 52%
    07:00 +14°C° 0 mm 7 mps 745 mmHg 49%
    08:00 +16°C° 0 mm 9 mps 744 mmHg 45%
    09:00 +17°C° 0 mm 9 mps 743 mmHg 45%
    10:00 +19°C° 0 mm 10 mps 743 mmHg 45%
    11:00 +22°C° 0 mm 11 mps 742 mmHg 45%
    12:00 +23°C° 0 mm 11 mps 741 mmHg 45%
    13:00 +23°C° 0 mm 11 mps 740 mmHg 46%
    14:00 +24°C° 0 mm 12 mps 739 mmHg 46%
    15:00 +24°C° 0 mm 11 mps 738 mmHg 48%
    16:00 +23°C° 0 mm 11 mps 737 mmHg 51%
    17:00 +23°C° 0 mm 10 mps 736 mmHg 53%
    18:00 +22°C° 1.1 mm 10 mps 737 mmHg 60%
    19:00 +19°C° 1.1 mm 10 mps 737 mmHg 67%
    20:00 +18°C° 1.1 mm 10 mps 737 mmHg 74%
    21:00 +17°C° 0.4 mm 8 mps 738 mmHg 72%
    22:00 +15°C° 0.4 mm 7 mps 738 mmHg 70%
    23:00 +14°C° 0.4 mm 5 mps 739 mmHg 69%

    25 September, Tuesday

    Time Temperature Precipitation Wind Pressure Humidity
    00:00 +13°C° 0 mm 5 mps 739 mmHg 69%
    01:00 +12°C° 0 mm 5 mps 739 mmHg 69%
    02:00 +10°C° 0 mm 5 mps 739 mmHg 70%
    03:00 +10°C° 0 mm 5 mps 740 mmHg 69%
    04:00 +9°C° 0 mm 6 mps 740 mmHg 68%
    05:00 +9°C° 0 mm 6 mps 740 mmHg 68%
    06:00 +10°C° 0 mm 7 mps 740 mmHg 64%
    07:00 +11°C° 0 mm 9 mps 740 mmHg 61%
    08:00 +11°C° 0 mm 10 mps 741 mmHg 58%
    09:00 +12°C° 0 mm 10 mps 741 mmHg 55%
    10:00 +13°C° 0 mm 10 mps 742 mmHg 51%
    11:00 +13°C° 0 mm 10 mps 742 mmHg 48%
    12:00 +13°C° 0 mm 9 mps 743 mmHg 47%
    13:00 +13°C° 0 mm 9 mps 743 mmHg 46%
    14:00 +13°C° 0 mm 8 mps 743 mmHg 45%
    15:00 +13°C° 0 mm 8 mps 744 mmHg 47%
    16:00 +12°C° 0 mm 7 mps 744 mmHg 48%
    17:00 +11°C° 0 mm 7 mps 745 mmHg 49%
    18:00 +10°C° 0 mm 6 mps 745 mmHg 52%
    19:00 +9°C° 0 mm 5 mps 746 mmHg 55%
    20:00 +8°C° 0 mm 4 mps 746 mmHg 58%
    21:00 +8°C° 0 mm 4 mps 746 mmHg 60%
    22:00 +8°C° 0 mm 4 mps 747 mmHg 61%
    23:00 +8°C° 0 mm 3 mps 747 mmHg 63%
    Show more